Location: Wanzleben
(52.0609°N, 11.4408°E)
Time: 17:33:14
(UTC+00:00)

Envisat - Pass Details

Date: 29 November 2020
Orbit: 764 x 766 km, 98.1° (Epoch: 20 January)

Event Time Altitude Azimuth Distance (km) Brightness Sun altitude
Rises 17:52:01 0° 221° (SW) 3,225 6.9 -24.4°
Reaches altitude 10° 17:55:44 10° 250° (WSW) 2,306 6.4 -24.9°
Maximum altitude 17:57:58 13° 276° (W) 2,118 6.2 -25.3°
Drops below altitude 10° 18:00:13 10° 302° (WNW) 2,314 6.2 -25.6°
Sets 18:03:58 0° 331° (NNW) 3,247 6.6 -26.2°
